Volk, WI

4:58 PM CDT on March 27, 2017 (GMT -0500)
Volk

Weather History for KVOK - February, 2013

Change the Weather History Date:

Friday, February 22, 2013

  Actual Average Record
Temperature  
Mean Temperature 24 °F -  
Max Temperature 28 °F 31 °F 64 °F (2017)
Min Temperature 21 °F 19 °F -11 °F (2015)
Degree Days  
Heating Degree Days 40    
Moisture  
Dew Point 21 °F    
Average Humidity 88    
Maximum Humidity 93    
Minimum Humidity 80    
Precipitation  
Precipitation 0.05 in - - ()
Snow  
Snow 0.00 in - - ()
Snow Depth 8.00 in    
Sea Level Pressure  
Sea Level Pressure 29.93 in    
Wind  
Wind Speed 11 mph (ENE)    
Max Wind Speed 18 mph    
Max Gust Speed 23 mph    
Visibility 4 miles    
Events Fog , Snow    
Averages and records for this station are not official NWS values.
T = Trace of Precipitation, MM = Missing Value Source: NWS Daily Summary

Daily Weather History Graph

Daily Weather History Graph

Search for Another Location

Airport or City:

Trip Planner

Search our weather history database for the weather conditions in past years. The results will help you decide how hot, cold, wet, or windy it might be!

Date:

Astronomy

Feb. 22, 2013 Rise Set
Actual Time 6:48 AM CST 5:40 PM CST
Civil Twilight 6:19 AM CST 6:09 PM CST
Nautical Twilight 5:46 AM CST 6:43 PM CST
Astronomical Twilight 5:13 AM CST 7:16 PM CST
Moon 2:48 PM CST (2/22) 4:38 AM CST (2/22)
Length of Visible Light 11h 50m
Length of Day
10h 51m
Waxing Gibbous, 90% of the Moon is Illuminated
Feb 22
Waxing Gibbous
Feb 25
Full
Mar 4
Last Quarter
Mar 11
New
Mar 19
First Quarter

Hourly Weather History & Observations

Time (CST) Temp. Windchill Dew Point Humidity Pressure Visibility Wind Dir Wind Speed Gust Speed Precip Events Conditions
12:12 AM 23.0 °F 11.1 °F 21.2 °F 93% 30.09 in 10.0 mi East 12.7 mph - N/A   Overcast
12:26 AM 23.0 °F 10.1 °F 19.4 °F 86% 30.08 in 10.0 mi East 15.0 mph 20.7 mph N/A   Overcast
12:39 AM 23.0 °F 8.7 °F 19.4 °F 86% 30.07 in 7.0 mi ENE 18.4 mph 23.0 mph N/A Snow Light Snow
12:44 AM 23.0 °F 11.1 °F 19.4 °F 86% 30.07 in 2.5 mi East 12.7 mph 23.0 mph N/A Snow Light Snow
12:46 AM 23.0 °F 9.6 °F 19.4 °F 86% 30.07 in 2.0 mi East 16.1 mph 23.0 mph N/A Snow Light Snow
12:47 AM 23.0 °F 11.1 °F 19.4 °F 86% 30.07 in 1.8 mi ENE 12.7 mph 23.0 mph N/A Snow Light Snow
12:48 AM 23.0 °F 10.6 °F 19.4 °F 86% 30.07 in 1.5 mi East 13.8 mph 23.0 mph N/A Snow Light Snow
12:50 AM 23.0 °F 10.6 °F 19.4 °F 86% 30.06 in 1.2 mi East 13.8 mph 21.9 mph N/A Snow Light Snow
12:53 AM 23.0 °F 11.7 °F 21.2 °F 93% 30.06 in 1.2 mi ENE 11.5 mph 21.9 mph N/A Snow Light Snow
12:55 AM 23.4 °F 11.6 °F 20.5 °F 89% 30.06 in 1.0 mi East 12.7 mph 21.9 mph 0.00 in Snow Light Snow
12:56 AM 23.0 °F 12.4 °F 21.2 °F 93% 30.06 in 1.0 mi ENE 10.4 mph - N/A Snow Light Snow
1:02 AM 23.0 °F 11.7 °F 21.2 °F 93% 30.06 in 1.0 mi East 11.5 mph - N/A Snow Light Snow
1:04 AM 23.0 °F 11.7 °F 21.2 °F 93% 30.06 in 0.8 mi East 11.5 mph - N/A Snow Light Snow
1:11 AM 23.0 °F 11.1 °F 21.2 °F 93% 30.06 in 0.8 mi East 12.7 mph - N/A Snow Light Snow
1:20 AM 23.0 °F 12.4 °F 21.2 °F 93% 30.04 in 0.8 mi ENE 10.4 mph 19.6 mph N/A Snow Light Snow
1:27 AM 23.0 °F 10.1 °F 21.2 °F 93% 30.04 in 1.0 mi ENE 15.0 mph 19.6 mph N/A Snow Light Snow
1:29 AM 23.0 °F 11.1 °F 21.2 °F 93% 30.04 in 1.0 mi ENE 12.7 mph 19.6 mph N/A Snow Light Snow
1:34 AM 23.0 °F 12.4 °F 21.2 °F 93% 30.03 in 1.2 mi ENE 10.4 mph 19.6 mph N/A Snow Light Snow
1:35 AM 23.0 °F 12.4 °F 21.2 °F 93% 30.03 in 1.2 mi ENE 10.4 mph 19.6 mph N/A Snow Light Snow
1:55 AM 22.8 °F 10.9 °F 20.1 °F 89% 30.01 in 1.0 mi ENE 12.7 mph 19.6 mph 0.00 in Snow Light Snow
2:08 AM 23.0 °F 11.1 °F 19.4 °F 86% 30.00 in 1.2 mi ENE 12.7 mph 21.9 mph N/A Snow Light Snow
2:11 AM 23.0 °F 12.4 °F 19.4 °F 86% 29.99 in 1.2 mi ENE 10.4 mph 21.9 mph N/A Snow Light Snow
2:25 AM 23.0 °F 10.1 °F 19.4 °F 86% 29.98 in 1.5 mi ENE 15.0 mph 21.9 mph N/A Snow Light Snow
2:32 AM 23.0 °F 9.6 °F 19.4 °F 86% 29.97 in 1.2 mi ENE 16.1 mph 21.9 mph N/A Snow Light Snow
2:38 AM 23.0 °F 12.4 °F 19.4 °F 86% 29.97 in 1.2 mi ENE 10.4 mph 21.9 mph N/A Snow Light Snow
2:40 AM 23.0 °F 11.1 °F 19.4 °F 86% 29.97 in 1.5 mi ENE 12.7 mph 21.9 mph N/A Snow Light Snow
2:51 AM 23.0 °F 11.1 °F 19.4 °F 86% 29.97 in 1.2 mi East 12.7 mph - N/A Snow Light Snow
2:55 AM 22.6 °F 10.1 °F 19.4 °F 87% 29.97 in 1.2 mi East 13.8 mph 19.6 mph 0.00 in Snow Light Snow
3:01 AM 23.0 °F 11.7 °F 19.4 °F 86% 29.98 in 1.0 mi East 11.5 mph 19.6 mph N/A Snow Light Snow
3:08 AM 23.0 °F 11.7 °F 19.4 °F 86% 29.98 in 0.8 mi East 11.5 mph - N/A Snow Light Snow
3:12 AM 23.0 °F 11.7 °F 19.4 °F 86% 29.98 in 0.8 mi East 11.5 mph - N/A Snow Light Snow
3:14 AM 23.0 °F 10.6 °F 19.4 °F 86% 29.97 in 0.8 mi East 13.8 mph - N/A Snow Light Snow
3:15 AM 23.0 °F 10.6 °F 19.4 °F 86% 29.97 in 0.5 mi East 13.8 mph - N/A Fog , Snow Light Freezing Fog
3:18 AM 23.0 °F 11.1 °F 19.4 °F 86% 29.97 in 0.5 mi East 12.7 mph - N/A Fog , Snow Light Freezing Fog
3:23 AM 23.0 °F 13.1 °F 19.4 °F 86% 29.97 in 0.5 mi East 9.2 mph - N/A Fog , Snow Light Freezing Fog
3:38 AM 23.0 °F 10.6 °F 19.4 °F 86% 29.97 in 0.8 mi East 13.8 mph - N/A Snow Light Snow
3:51 AM 23.0 °F 12.4 °F 19.4 °F 86% 29.96 in 0.8 mi East 10.4 mph - N/A Snow Light Snow
3:55 AM 22.1 °F 11.3 °F 19.9 °F 91% 29.96 in 0.8 mi East 10.4 mph - 0.00 in Snow Light Snow
3:58 AM 23.0 °F 13.1 °F 19.4 °F 86% 29.95 in 0.8 mi East 9.2 mph - N/A Snow Light Snow
4:14 AM 23.0 °F 11.7 °F 19.4 °F 86% 29.94 in 0.8 mi East 11.5 mph - N/A Snow Light Snow
4:16 AM 23.0 °F 12.4 °F 19.4 °F 86% 29.94 in 1.0 mi East 10.4 mph - N/A Snow Light Snow
4:31 AM 23.0 °F 13.1 °F 19.4 °F 86% 29.94 in 0.8 mi East 9.2 mph - N/A Snow Light Snow
4:37 AM 21.2 °F 10.1 °F 19.4 °F 93% 29.94 in 0.8 mi East 10.4 mph - N/A Snow Light Snow
4:51 AM 21.2 °F 10.1 °F 19.4 °F 93% 29.93 in 1.0 mi East 10.4 mph - N/A Snow Light Snow
4:55 AM 21.9 °F 11.0 °F 19.4 °F 90% 29.93 in 1.0 mi East 10.4 mph - 0.00 in Snow Light Snow
4:57 AM 21.2 °F 10.1 °F 19.4 °F 93% 29.93 in 1.0 mi East 10.4 mph - N/A Snow Light Snow
5:16 AM 21.2 °F 11.7 °F 19.4 °F 93% 29.93 in 1.0 mi East 8.1 mph - N/A Snow Light Snow
5:39 AM 21.2 °F 10.9 °F 19.4 °F 93% 29.92 in 1.0 mi East 9.2 mph - N/A Snow Light Snow
5:40 AM 21.2 °F 10.1 °F 19.4 °F 93% 29.92 in 1.2 mi East 10.4 mph - N/A Snow Light Snow
5:51 AM 21.2 °F 10.1 °F 19.4 °F 93% 29.92 in 1.0 mi East 10.4 mph - N/A Snow Light Snow
5:53 AM 21.2 °F 9.5 °F 19.4 °F 93% 29.92 in 1.2 mi East 11.5 mph - N/A Snow Light Snow
5:55 AM 21.9 °F 11.0 °F 18.7 °F 87% 29.92 in 1.2 mi East 10.4 mph - 0.00 in Snow Light Snow
6:43 AM 21.2 °F 10.9 °F 17.6 °F 86% 29.91 in 1.0 mi East 9.2 mph - N/A Snow Light Snow
6:46 AM 21.2 °F 10.9 °F 17.6 °F 86% 29.91 in 0.8 mi East 9.2 mph - N/A Snow Light Snow
6:55 AM 21.2 °F 11.7 °F 17.6 °F 86% 29.91 in 7.0 mi East 8.1 mph - N/A Snow Light Snow
7:55 AM 23.0 °F 14.7 °F 19.4 °F 86% 29.89 in 7.0 mi ENE 6.9 mph - N/A Snow Light Snow
8:58 AM 23.0 °F 17.0 °F 19.4 °F 86% 29.89 in 7.0 mi East 4.6 mph - N/A Snow Light Snow
9:29 AM 23.0 °F 17.0 °F 21.2 °F 93% 29.84 in 4.0 mi East 4.6 mph - N/A Snow Light Snow
9:55 AM 24.8 °F 19.1 °F 21.2 °F 86% 29.87 in 6.0 mi ENE 4.6 mph - N/A Snow Light Snow
10:55 AM 24.8 °F 20.5 °F 23.0 °F 93% 29.87 in 5.0 mi East 3.5 mph - N/A Snow Light Snow
11:35 AM 26.6 °F - 23.0 °F 86% 29.82 in 1.5 mi NE 2.3 mph - N/A Snow Light Snow
11:55 AM 26.6 °F 21.2 °F 23.0 °F 86% 29.85 in 1.8 mi ENE 4.6 mph - N/A Snow Light Snow
12:55 PM 28.4 °F 22.2 °F 24.8 °F 86% 29.82 in 3.0 mi ENE 5.8 mph - N/A Snow Light Snow
1:55 PM 28.4 °F - 23.0 °F 80% 29.83 in 5.0 mi Calm Calm - N/A Snow Light Snow
2:55 PM 28.4 °F 24.6 °F 24.8 °F 86% 29.83 in 3.0 mi WSW 3.5 mph - N/A Snow Light Snow
3:01 PM 28.4 °F 24.6 °F 24.8 °F 86% 29.83 in 5.0 mi West 3.5 mph - N/A Snow Light Snow
3:13 PM 28.4 °F 24.6 °F 24.8 °F 86% 29.83 in 4.0 mi West 3.5 mph - N/A Snow Light Snow
3:17 PM 28.4 °F 24.6 °F 24.8 °F 86% 29.83 in 5.0 mi WSW 3.5 mph - N/A Snow Light Snow
3:24 PM 28.4 °F 24.6 °F 24.8 °F 86% 29.84 in 5.0 mi WSW 3.5 mph - N/A Snow Light Snow
3:32 PM 28.4 °F 24.6 °F 24.8 °F 86% 29.83 in 5.0 mi WSW 3.5 mph - N/A Snow Light Snow
3:34 PM 28.4 °F 24.6 °F 24.8 °F 86% 29.83 in 6.0 mi WSW 3.5 mph - N/A Snow Light Snow
3:55 PM 28.4 °F 23.3 °F 24.8 °F 86% 29.83 in 7.0 mi West 4.6 mph - N/A Snow Light Snow
4:55 PM 28.4 °F 24.6 °F 23.0 °F 80% 29.83 in 10.0 mi WNW 3.5 mph - N/A   Overcast
5:55 PM 26.6 °F 21.2 °F 23.0 °F 86% 29.85 in 10.0 mi WNW 4.6 mph - N/A Snow Light Snow
6:12 PM 26.6 °F 21.2 °F 21.2 °F 80% 29.85 in 10.0 mi WNW 4.6 mph - N/A   Mostly Cloudy
6:22 PM 26.6 °F 21.2 °F 21.2 °F 80% 29.85 in 10.0 mi WNW 4.6 mph - N/A   Overcast
6:33 PM 24.8 °F 17.9 °F 23.0 °F 93% 29.85 in 10.0 mi WNW 5.8 mph - N/A   Overcast
6:34 PM 24.8 °F 17.9 °F 23.0 °F 93% 29.85 in 10.0 mi WNW 5.8 mph - N/A   Overcast
6:55 PM 26.1 °F 19.4 °F 22.6 °F 87% 29.85 in 10.0 mi WNW 5.8 mph - 0.00 in   Overcast
7:07 PM 26.6 °F 20.0 °F 23.0 °F 86% 29.86 in 10.0 mi West 5.8 mph - N/A   Overcast
7:32 PM 26.6 °F 18.2 °F 23.0 °F 86% 29.86 in 10.0 mi West 8.1 mph - N/A   Overcast
7:40 PM 26.6 °F 19.1 °F 23.0 °F 86% 29.86 in 10.0 mi West 6.9 mph - N/A   Overcast
7:55 PM 26.2 °F 18.6 °F 22.3 °F 85% 29.86 in 10.0 mi West 6.9 mph - 0.00 in   Overcast
8:18 PM 26.6 °F 18.2 °F 23.0 °F 86% 29.86 in 10.0 mi West 8.1 mph - N/A   Overcast
8:55 PM 26.4 °F 17.3 °F 22.1 °F 84% 29.86 in 9.0 mi West 9.2 mph - 0.00 in Snow Light Snow
8:58 PM 26.6 °F 16.8 °F 21.2 °F 80% 29.86 in 8.0 mi West 10.4 mph - N/A Snow Light Snow
9:31 PM 26.6 °F 19.1 °F 23.0 °F 86% 29.86 in 6.0 mi West 6.9 mph - N/A Snow Light Snow
9:44 PM 26.6 °F 18.2 °F 23.0 °F 86% 29.86 in 8.0 mi West 8.1 mph - N/A Snow Light Snow
9:55 PM 25.5 °F 16.9 °F 21.9 °F 86% 29.86 in 9.0 mi West 8.1 mph - 0.00 in Snow Light Snow
10:42 PM 24.8 °F 16.1 °F 21.2 °F 86% 29.86 in 10.0 mi West 8.1 mph - N/A   Overcast
10:55 PM 25.2 °F 15.7 °F 21.4 °F 86% 29.86 in 10.0 mi West 9.2 mph - 0.00 in   Overcast
11:20 PM 24.8 °F 16.1 °F 21.2 °F 86% 29.86 in 10.0 mi West 8.1 mph - N/A   Overcast
11:38 PM 24.8 °F 16.1 °F 21.2 °F 86% 29.85 in 10.0 mi West 8.1 mph - N/A   Overcast
11:55 PM 24.6 °F 15.1 °F 20.7 °F 85% 29.85 in 10.0 mi West 9.2 mph - 0.00 in   Overcast